Location: Charlotte
(35.2269°N, 80.8433°W)
Time: 06:57:28
(UTC-05:00)

ISS - Visible Passes

Search period start: 17 February 2019 00:00
Search period end: 27 February 2019 00:00
Orbit: 403 x 411 km, 51.6° (Epoch: 17 February)

Date Brightness Start Highest point End Pass type
(mag) Time Alt. Az. Time Alt. Az. Time Alt. Az.
20 Feb -0.5 06:05:42 10° SSE 06:06:50 11° SE 06:07:57 10° ESE visible
22 Feb -2.1 05:57:12 10° SSW 06:00:09 32° SE 06:03:06 10° ENE visible
23 Feb -1.1 05:07:34 13° SSE 05:08:49 16° SE 05:10:53 10° E visible
24 Feb -4.0 05:51:46 24° SW 05:53:34 81° NW 05:56:51 10° NE visible
25 Feb -2.3 05:02:57 35° E 05:02:57 35° E 05:05:15 10° ENE visible
26 Feb -2.8 05:46:40 28° NW 05:47:07 29° NW 05:50:03 10° NNE visible
